Lamoni, IA

12:57 PM CDT on September 28, 2016 (GMT -0500)
Lamoni Municipal

Weather History for KLWD - October, 2010

Change the Weather History Date:

Monday, October 4, 2010

  Actual Average Record
Temperature  
Mean Temperature 52 °F 58 °F  
Max Temperature 63 °F 69 °F 87 °F (1967)
Min Temperature 41 °F 47 °F 28 °F (1999)
Degree Days  
Heating Degree Days 13 8  
Month to date heating degree days 49 32  
Since 1 July heating degree days 107 132  
Cooling Degree Days 0 1  
Month to date cooling degree days 0 4  
Year to date cooling degree days 1174 937  
Growing Degree Days 2 (Base 50)    
Moisture  
Dew Point 36 °F    
Average Humidity 58    
Maximum Humidity 79    
Minimum Humidity 36    
Precipitation  
Precipitation 0.00 in 0.05 in 2.29 in (1991)
Month to date precipitation 0.00 0.26  
Year to date precipitation 48.06  
Sea Level Pressure  
Sea Level Pressure 30.37 in    
Wind  
Wind Speed 6 mph (SSE)    
Max Wind Speed 12 mph    
Max Gust Speed 16 mph    
Visibility 10 miles    
Events      
T = Trace of Precipitation, MM = Missing Value Source: NWS Daily Summary

Daily Weather History Graph

Daily Weather History Graph

Search for Another Location

Airport or City:

Trip Planner

Search our weather history database for the weather conditions in past years. The results will help you decide how hot, cold, wet, or windy it might be!

Date:

Astronomy

Oct. 04, 2010 Rise Set
Actual Time 7:15 AM CDT 6:52 PM CDT
Civil Twilight 6:47 AM CDT 7:20 PM CDT
Nautical Twilight 6:16 AM CDT 7:51 PM CDT
Astronomical Twilight 5:44 AM CDT 8:23 PM CDT
Moon 3:23 AM CDT (10/4) 4:52 PM CDT (10/4)
Length of Visible Light 12h 32m
Length of Day
11h 37m
Waning Crescent, 14% of the Moon is Illuminated
Oct 4
Waning Crescent
Oct 7
New
Oct 14
First Quarter
Oct 22
Full
Oct 30
Last Quarter

Hourly Weather History & Observations

Time (CDT) Temp. Windchill Dew Point Humidity Pressure Visibility Wind Dir Wind Speed Gust Speed Precip Events Conditions
12:53 AM 46.9 °F - 34.0 °F 61% 30.38 in 10.0 mi SE 3.5 mph - N/A   Clear
1:53 AM 46.0 °F 44.8 °F 35.1 °F 66% 30.39 in 10.0 mi SSE 3.5 mph - N/A   Clear
2:53 AM 45.0 °F 43.5 °F 35.1 °F 68% 30.39 in 10.0 mi SSE 3.5 mph - N/A   Clear
3:53 AM 43.0 °F 41.3 °F 35.1 °F 74% 30.38 in 10.0 mi South 3.5 mph - N/A   Clear
4:53 AM 44.1 °F 42.5 °F 34.0 °F 68% 30.39 in 10.0 mi South 3.5 mph - N/A   Clear
5:53 AM 43.0 °F 41.3 °F 35.1 °F 74% 30.40 in 10.0 mi SSE 3.5 mph - N/A   Clear
6:53 AM 43.0 °F 40.3 °F 34.0 °F 71% 30.40 in 10.0 mi SSE 4.6 mph - N/A   Clear
7:53 AM 41.0 °F 37.1 °F 36.0 °F 82% 30.42 in 10.0 mi SE 5.8 mph - N/A   Clear
8:53 AM 45.0 °F 41.8 °F 37.0 °F 74% 30.43 in 10.0 mi SSE 5.8 mph - N/A   Clear
9:53 AM 51.1 °F - 36.0 °F 56% 30.44 in 10.0 mi South 8.1 mph - N/A   Clear
10:53 AM 55.0 °F - 36.0 °F 49% 30.44 in 10.0 mi South 9.2 mph - N/A   Clear
11:53 AM 57.0 °F - 36.0 °F 45% 30.42 in 10.0 mi South 4.6 mph - N/A   Clear
12:53 PM 60.1 °F - 37.0 °F 42% 30.40 in 10.0 mi South 9.2 mph - N/A   Clear
1:53 PM 60.1 °F - 36.0 °F 41% 30.37 in 10.0 mi South 10.4 mph - N/A   Clear
2:53 PM 61.0 °F - 36.0 °F 39% 30.35 in 10.0 mi South 3.5 mph - N/A   Clear
3:53 PM 63.0 °F - 37.0 °F 38% 30.34 in 10.0 mi SSE 8.1 mph - N/A   Clear
4:53 PM 62.1 °F - 35.1 °F 37% 30.32 in 10.0 mi SE 6.9 mph - N/A   Clear
5:53 PM 61.0 °F - 35.1 °F 38% 30.32 in 10.0 mi South 8.1 mph - N/A   Clear
6:53 PM 57.9 °F - 36.0 °F 44% 30.31 in 10.0 mi SE 5.8 mph - N/A   Clear
7:53 PM 55.0 °F - 36.0 °F 49% 30.32 in 10.0 mi SSE 6.9 mph - N/A   Clear
8:53 PM 54.0 °F - 36.0 °F 51% 30.34 in 10.0 mi SSE 8.1 mph - N/A   Clear
9:53 PM 52.0 °F - 36.0 °F 54% 30.34 in 10.0 mi SSE 4.6 mph - N/A   Clear
10:53 PM 48.9 °F - 36.0 °F 61% 30.34 in 10.0 mi South 5.8 mph - N/A   Clear
11:53 PM 48.0 °F - 37.0 °F 66% 30.34 in 10.0 mi South 6.9 mph - N/A   Clear